#timestamp,LO_Frequency,Hit,StdDev 
1712678415.4,286047005.2,N
1712678435.2,286047009.8,P
1712678455.1,286047013.4,Y
1712678456.0,286047013.4,P
1712678475.8,286047006.6,N
1712678495.6,286047007.4,N
1712678515.5,286047002.4,N
1712678535.3,286047000.3,N
1712678555.1,286046999.8,N
1712678575.9,286047002.3,N
1712678595.7,286047005.7,N
1712678615.6,286047006.4,N
1712678635.4,286047008.2,N
1712678655.2,286047006.3,N
1712678675.1,286047006.3,N
1712678676.0,286047006.3,N
1712678695.8,286047005.3,N
1712678715.6,286047004.3,N
1712678735.5,286047004.0,N
1712678755.3,286047010.4,Y
1712678775.2,286047007.1,P
1712678795.9,286047013.8,P
1712678815.7,286047017.1,P
1712678835.6,286047016.3,Y
1712678855.4,286047011.0,P
1712678875.3,286047020.3,P
1712678895.1,286047022.7,P
1712678896.0,286047022.7,Y
1712678915.8,286047006.5,P
1712678935.7,286047014.0,N
1712678955.5,286047018.4,P
1712678975.4,286047019.7,Y
1712678995.2,286047007.5,P
1712679015.0,286047003.1,N
1712679015.9,286047003.1,N
1712679035.8,286047002.5,N
1712679055.6,286046999.7,N
1712679075.4,286047002.4,N
1712679095.3,286047005.1,N
1712679115.1,286046998.9,N
1712679135.9,286046999.1,N
1712679155.7,286046993.9,N
1712679175.5,286046994.0,N
1712679195.4,286046994.8,N
1712679215.2,286046993.0,N
1712679235.0,286046991.9,N
1712679235.9,286046991.9,N
1712679255.8,286046992.8,N
1712679275.6,286046990.1,N
1712679295.5,286046992.0,N
1712679315.3,286046995.5,N
1712679335.1,286046993.7,N
1712679355.9,286046994.3,N
1712679375.7,286046992.3,N
1712679395.5,286046995.1,N
1712679415.4,286046997.1,N
1712679435.2,286046999.4,N
1712679455.1,286046996.6,N
1712679456.0,286046996.6,N
1712679475.8,286046997.7,N
1712679495.6,286046993.0,N
1712679515.5,286046986.9,N
1712679535.3,286046987.7,N
1712679555.1,286046988.8,N
1712679575.9,286046992.7,N
1712679595.7,286046991.6,N
1712679615.6,286046992.3,N
1712679635.4,286046994.2,N
1712679655.2,286046994.2,N
1712679675.1,286046996.4,N
1712679676.0,286046996.4,N
1712679695.8,286046998.6,N
1712679715.7,286047004.2,N
1712679735.5,286047005.6,N
1712679755.3,286047005.3,N
1712679775.2,286047002.3,N
1712679795.0,286047000.2,N
1712679795.9,286047000.2,N
1712679815.8,286046995.7,N
1712679835.6,286046998.5,N
1712679855.4,286046993.4,N
1712679875.3,286046998.2,N
1712679895.1,286046997.3,N
1712679915.8,286046998.3,N
1712679935.7,286047000.6,N
1712679955.5,286047002.2,N
1712679975.4,286047013.6,N
1712679995.2,286047016.9,Y
1712680015.0,286047028.4,P
1712680015.9,286047028.4,N
1712680035.8,286047027.2,N
1712680055.6,286047033.1,N
1712680075.5,286047033.6,N
1712680095.3,286047033.5,N
1712680115.1,286047035.4,N
1712680135.9,286047035.0,Y
1712680155.7,286047009.8,P
1712680175.6,286047007.8,N
1712680195.4,286047010.4,N
1712680215.2,286047010.1,N
1712680235.1,286047010.7,N
1712680236.0,286047010.7,N
1712680255.8,286047010.8,N
1712680275.6,286047003.4,N
1712680295.5,286047002.1,N
1712680315.3,286046998.4,N
1712680335.2,286046999.9,N
1712680355.0,286047008.8,N
1712680355.9,286047008.8,N
1712680375.7,286047010.4,N
1712680395.6,286047013.7,N
1712680415.4,286047017.0,N
1712680435.3,286047016.8,N
1712680455.1,286047015.8,N
1712680475.9,286047016.3,N
1712680495.7,286047012.9,N
1712680515.5,286047011.7,N
1712680535.4,286047009.3,N
1712680555.2,286047009.1,N
1712680575.0,286047007.9,N
1712680576.0,286047007.9,N
1712680595.8,286047009.2,N
1712680615.6,286047004.5,N
1712680635.5,286047003.1,N
1712680655.3,286047002.4,N
1712680675.1,286047001.2,N
1712680695.9,286046998.4,N
1712680715.7,286046998.3,N
1712680735.6,286047001.8,N
1712680755.4,286047007.5,N
1712680775.2,286047010.1,N
1712680795.1,286047015.1,N
1712680796.0,286047015.1,N
1712680815.8,286047017.5,N
1712680835.7,286047020.6,Y
1712680855.5,286047014.5,P
1712680875.3,286047017.6,P
1712680895.2,286047017.4,P
1712680915.0,286047017.6,Y
1712680915.9,286047017.6,P
1712680935.8,286047005.8,P
1712680955.6,286047003.2,N
1712680975.5,286047000.2,N
1712680995.3,286046999.3,N
1712681015.1,286046995.1,N
1712681035.9,286046991.8,N
1712681055.7,286046992.9,N
1712681075.5,286046996.9,N
1712681095.4,286046999.2,N
1712681115.2,286046997.8,N
1712681135.1,286046995.0,N
1712681136.0,286046995.0,N
1712681155.8,286046999.2,N
1712681175.6,286047000.4,N
1712681195.5,286047002.0,N
1712681215.3,286047005.0,N
1712681235.1,286047009.2,N
1712681255.9,286047005.6,N
1712681275.7,286047002.0,N
1712681295.6,286047000.5,N
1712681315.4,286046997.9,N
1712681335.2,286046992.1,N
1712681355.1,286046995.9,N
1712681356.0,286046995.9,N
1712681375.8,286046996.9,N
1712681395.6,286046998.9,N
1712681415.5,286046999.8,N
1712681435.3,286047000.4,N
1712681455.2,286046994.9,N
1712681475.9,286046991.7,N
1712681495.7,286046988.9,N
1712681515.6,286046988.4,N
1712681535.4,286046984.1,Y
1712681555.3,286046985.4,P
1712681575.1,286046985.0,N
1712681576.0,286046985.0,N
1712681595.8,286046984.4,N
1712681615.7,286046982.1,Y
1712681635.5,286046993.8,P
1712681655.4,286046992.0,N
1712681675.2,286046993.7,N
1712681695.0,286047000.0,N
1712681695.9,286047000.0,N
1712681715.8,286047009.4,N
1712681735.6,286047014.3,N
1712681755.4,286047015.7,N
1712681775.3,286047019.4,N
1712681795.1,286047022.9,N
1712681815.9,286047024.4,N
1712681835.7,286047022.1,N
1712681855.5,286047022.5,N
1712681875.4,286047025.9,N
1712681895.2,286047025.7,N
1712681915.0,286047031.4,N
1712681916.0,286047031.4,N
1712681935.8,286047030.8,N
1712681955.6,286047027.6,N
1712681975.5,286047023.8,N
1712681995.3,286047023.3,N
